sat.trackr.live / text

‹ back to catalog

STARLINK-34103

NORAD 63962 · 2025-099L

PAYLOAD ACTIVE UNKNOWN

§ Identity

Operator
Country
US
Launch date
2025-05-13
Launch site
AFETR
Launch vehicle
Mass (kg)
RCS (m²)

Purposes: comms

External: N2YO · Heavens-Above · Gunter

§ Orbital elements

Epoch: 2026-09-19T03:33:21.970080Z

Period
94.27 min
Inclination
42.9997°
Eccentricity
0.0001161
Mean motion
15.27591178 rev/d
Perigee alt
482.2 km
Apogee alt
483.8 km
Semi-major
6,861.2 km
B*
5.2306e-4
RAAN
163.6325°
Arg perigee
291.1982°
Mean anomaly
68.8746°
Rev number
7,692

§ Raw data

STARLINK-341031 63962U 25099L   26262.14817095  .00014164  00000+0  52306-3 0  99982 63962  42.9997 163.6325 0001161 291.1982  68.8746 15.27591178 76924

JSON: /api/v1/satellites/63962 · /tle

For live sub-satellite position, see the globe view (requires WebGL).

§ Visibility from observer

Set your observer location to see the next 7 days of passes ≥ 10°. The values pass through the URL so the page stays shareable.

No JS? Fill the form by hand. The geolocation button needs JavaScript.